Skip Page Navigation
NASA JPL Caltech
NASA Logo - Jet Propulsion Laboratory + View the NASA Portal
+ Center for Near-Earth Object Studies
JPL Home Earth Solar System Stars & Galaxies Technology
JPL Solar System Dynamics
BODIES ORBITS EPHEMERIDES TOOLS PHYSICAL DATA DISCOVERY FAQ SITE MAP
JPL Small-Body Database Browser
Search: [ help ]  
227625 (2006 BG60)
Classification: Main-belt Asteroid          SPK-ID: 2227625
Ephemeris | Orbit Diagram | Orbital Elements | Mission Design | Physical Parameters | Discovery Circumstances ]

[ show orbit diagram ]
Orbital Elements at Epoch 2459200.5 (2020-Dec-17.0) TDB
Reference: JPL 14 (heliocentric ecliptic J2000)
 Element Value Uncertainty (1-sigma)   Units 
e .05357732073751719 7.2031e-08  
a 2.916102803098371 3.286e-08 au
q 2.759865827913197 2.0699e-07 au
i .646502729256223 5.257e-06 deg
node 246.8620335576761 0.00071877 deg
peri 92.54106648799849 0.00072051 deg
M 165.8915301837832 5.2616e-05 deg
tp 2458362.344913921497
(2018-Aug-31.84491392)
0.00026303 TDB
period 1818.874240619654
4.98
3.0744e-05
8.417e-08
d
yr
n .1979246239021754 3.3454e-09 deg/d
Q 3.072339778283546 3.462e-08 au
  Orbit Determination Parameters
   # obs. used (total)      190  
   data-arc span      8232 days (22.54 yr)  
   first obs. used      1998-07-26  
   last obs. used      2021-02-07  
   planetary ephem.      DE441  
   SB-pert. ephem.      SB441-N16  
   condition code      0  
   norm. resid. RMS      .6275  
   source      ORB  
   producer      Otto Matic  
   solution date      2021-Apr-14 00:40:30  

Additional Information
 Earth MOID = 1.74889 au 
 Jupiter MOID = 2.1439 au 
 T_jup = 3.279 
[ show covariance matrix ]

Ephemeris | Orbit Diagram | Orbital Elements | Mission Design | Physical Parameters | Discovery Circumstances ]

Physical Parameter Table
Parameter Symbol Value Units Sigma Reference Notes
absolute magnitude H 16.6   n/a MPO454635  

227625 (2006 BG60)          Discovered 2006-Jan-26 by Spacewatch at Kitt Peak
Reference: 20091202/Numbers.arcLast Updated: 2009-12-04
Ephemeris | Orbit Diagram | Orbital Elements | Mission Design | Physical Parameters | Discovery Circumstances ]
ABOUT SSD CREDITS/AWARDS PRIVACY/COPYRIGHT GLOSSARY LINKS
FirstGov 2021-Apr-15 00:45 UT
(server date/time)  
NASA Home Page
Site Manager:   Ryan S. Park
Webmaster  Alan B. Chamberlin